Regional Weather Roundup
Issued by NWS Sterling, VA

Home | Current Version | Previous Version | Graphics & Text | Print | Product List | Glossary On
Versions: 1 2 3 4 5 6 7 8 9 10 11 12 13 14 15 16 17 18 19 20 21 22 23 24 25 26 27 28 29 30 31 32 33 34 35 36 37 38 39 40 41 42 43 44 45 46 47 48 49 50
000
ASUS41 KLWX 070110
RWRLWX

REGIONAL WEATHER ROUNDUP
NATIONAL WEATHER SERVICE BALTIMORE MD/WASHINGTON DC
800 PM EST SAT FEB 06 2016

Note: "FAIR" indicates few or no clouds below 12,000 feet
with no significant weather and/or obstructions to visibility.
 TC=TEMPERATURE CELSIUS

 * =Non NWS site. Station does not report precipitation (e.g. rain,
    snow, etc.), thunder, or fog.

DCZ001-MDZ009-015-VAZ040>042-051-053>054-070200-
WASHINGTON METRO

CITY           SKY/WX    TMP DP  RH WIND       PRES   REMARKS
WASHINGTON NAT MOCLDY    38  23  55 S8        30.32R
DULLES         MOCLDY    35  18  49 S6        30.30R
ANDREWS AFB    CLEAR     35  21  56 S6        30.30R
FT BELVOIR     FAIR      32  23  67 CALM      30.32R
QUANTICO       FAIR      39  27  62 S5        30.34R
LEESBURG*      FAIR      36  23  60 S7        30.31R
MANASSAS*      CLEAR     30  25  80 CALM      30.32R
GAITHERSBURG*  PTCLDY    34  16  47 CALM      30.33S

$$

MDZ006>007-011-014-070200-
BALTIMORE METRO

CITY           SKY/WX    TMP DP  RH WIND       PRES   REMARKS
BWI AIRPORT    MOCLDY    35  22  58 S3        30.30S
MD SCIENCE CTR   N/A     39  23  52 MISG      30.31R
MARTIN STATE   CLEAR     37  28  70 S5        30.33S
ANNAPOLIS      CLEAR     37  28  70 S7        30.32S
FORT MEADE*    PTCLDY    30  27  86 CALM      30.33S

$$

MDZ012-015-019>023-070200-
MARYLAND EASTERN SHORE

CITY           SKY/WX    TMP DP  RH WIND       PRES   REMARKS
OCEAN CITY     CLEAR     31  25  78 CALM      30.35R
SALISBURY      CLEAR     29  27  92 CALM      30.34S
BAY BRIDGE AP*   N/A     37  27  65 CALM      30.33R

$$

MDZ017>025-070200-
SOUTHERN MARYLAND

CITY           SKY/WX    TMP DP  RH WIND       PRES   REMARKS
PATUXENT RIVER CLEAR     34  24  67 S6        30.34R
ST INIGOES     CLEAR     32  26  78 CALM      30.34R
LEONARDTOWN*   CLEAR     32  23  69 CALM      30.35R

$$

MDZ003>005-070200-
NORTH CENTRAL MARYLAND

CITY           SKY/WX    TMP DP  RH WIND       PRES   REMARKS
FREDERICK*     PTCLDY    32  25  74 CALM      30.31S
HAGERSTOWN APT PTCLDY    36  18  48 S6        30.26R
WESTMINSTER*   PTCLDY    36  27  69 S6        30.27R

$$

MDZ501>502-070200-
WESTERN MARYLAND

CITY           SKY/WX    TMP DP  RH WIND       PRES   REMARKS
OAKLAND*       PTCLDY    32  14  47 W6        30.17R
CUMBERLAND*    PTCLDY    37  23  56 CALM      30.27S

$$

VAZ025>031-070200-
SHENANDOAH VALLEY

CITY           SKY/WX    TMP DP  RH WIND       PRES   REMARKS
WINCHESTER*    FAIR      36  21  55 S7        30.26S
FRONT ROYAL*   FAIR      36  19  51 CALM      30.26R
LURAY*         FAIR      32  21  64 CALM      30.27R
NEW MARKET*    FAIR      32  23  71 CALM      30.26R
STAUNTON*      FAIR      38  21  49 S6        30.28S
WAYNESBORO*    FAIR      32  17  52 CALM      30.26S

$$

WVZ021-048>050-054>055-070200-
EASTERN WEST VIRGINIA PANHANDLE

CITY           SKY/WX    TMP DP  RH WIND       PRES   REMARKS
MARTINSBURG    FAIR      34  18  52 SW3       30.26R
PETERSBURG*    FAIR      33  25  75 CALM      30.26R

$$

VAZ036>039-050-070200-
CENTRAL FOOTHILLS

CITY           SKY/WX    TMP DP  RH WIND       PRES   REMARKS
CHARLOTTESVILL FAIR      37  17  44 SE3       30.29R
CULPEPER*      FAIR      29  23  78 CALM      30.32R
ORANGE*        FAIR      32  25  74 CALM      30.33R
GORDONSVILLE*  FAIR      30  23  76 CALM      30.31R
WARRENTON*     FAIR      35  22  61 CALM      30.31R

$$

VAZ055>057-070200-
NORTH AND CENTRAL PIEDMONT

CITY           SKY/WX    TMP DP  RH WIND       PRES   REMARKS
FREDERICKSBRG* FAIR      33  25  71 CALM      30.32R
STAFFORD*      FAIR      31  22  68 CALM      30.37R

$$

NCZ024-NYZ072-PAZ021-071-VAZ022-071-070200-
OTHER REGIONAL OBSERVATIONS

CITY           SKY/WX    TMP DP  RH WIND       PRES   REMARKS
NEW YORK CITY  CLEAR     39  19  44 SW8       30.31S
PHILADELPHIA   PTCLDY    37  24  59 S7        30.32R
PITTSBURGH     CLEAR     36  12  37 SW5       30.21S
ROANOKE        MOCLDY    39  16  39 CALM      30.29F
RICHMOND       FAIR      34  23  64 CALM      30.33R
RALEIGH        CLOUDY    38  24  57 CALM      30.31S

$$

ANZ530>537-070200-
MARINE OBSERVATIONS

STATION/POSITION TIME  TEMP    WIND        PRES
                       AIR SEA DIR/SP/G
                 (UTC) (F)     (DEG/KT/KT) (MB)
THOMAS PT LIGHT  0000   39     180/ 10     1027.2F
BALT KEY BRIDGE  0000   38     150/  9/  9 1026.3F
COVE POINT       0000   38     190/  9/ 10 1027.4F
LEWISETTA        0000   38 42  170/  6/  7 1026.5F
SOLOMONS ISLAND  0000   38 42  160/  5/  6   N/A

$$




USA.gov is the U.S. government's official web portal to all federal, state and local government web resources and services.